Simultaneous Nadir Overpasses (SNOs) Predictions

Prediction of SNOs between GOES-16 and TERRA Satellite Orbit:

Table of predicted SNOs for the next 14.0 days since TLE Epoch: 7/11/2020
Index Date Time (GOES-16) GOES-16 Lat,Lon TERRA Lat,Lon Distance(km) Time Diff (sec)
1 07/11/2020 15:36:07 -0.02, -75.22 0.29, -76.73 171.80 80
2 07/13/2020 15:26:37 -0.02, -75.23 -0.35, -73.78 165.59 80
3 07/14/2020 03:48:01 0.02, -75.22 -0.79, -78.97 426.37 80
4 07/16/2020 03:35:52 0.01, -75.24 -0.13, -76.02 88.67 80
5 07/18/2020 03:21:02 -0.00, -75.26 0.44, -73.06 249.08 80
6 07/18/2020 15:42:18 0.01, -75.28 0.61, -78.23 335.02 80
7 07/20/2020 15:32:49 0.00, -75.30 0.02, -75.28 3.85 80
8 07/22/2020 15:20:43 -0.01, -75.33 -0.65, -72.35 339.66 80
9 07/23/2020 03:42:07 0.01, -75.32 -0.46, -77.54 252.05 80
